Simultaneous Nadir Overpasses (SNOs) Predictions

Prediction of SNOs over PacNW region [( 10.00, 139.50) to ( 22.70, 165.60)] between NOAA-19 and NPP Satellites:

Table of predicted SNOs over PacNW region for the next 30.0 days since TLE Epoch: 2/17/2014
Index Date (NOAA-19) Time (NOAA-19) NOAA-19 Lat,Lon Date (NPP) Time (NPP) NPP Lat,Lon Distance(km) Time Diff (sec)
1 02/20/2014 15:04:50 22.60, 164.14 02/20/2014 15:07:59 23.79, 158.97 544.83 189
2 02/21/2014 04:03:24 22.70, 142.02 02/21/2014 04:02:15 21.88, 137.99 425.10 69
3 03/05/2014 16:04:50 22.61, 149.27 03/05/2014 16:05:16 23.65, 144.70 481.90 26
4 03/06/2014 03:21:19 22.65, 152.68 03/06/2014 03:18:01 21.92, 149.11 376.11 198
5 03/18/2014 02:47:56 14.40, 162.58 03/18/2014 02:50:17 13.25, 157.58 555.06 141
6 03/18/2014 15:24:28 16.60, 158.42 03/18/2014 15:22:44 17.45, 154.31 447.63 104
